Weather History for Christchurch, New Zealand

Change the Weather History Date:

Friday, March 22, 2013

  Actual Average Record
Temperature  
Mean Temperature 55 °F -  
Max Temperature 66 °F 62 °F - ()
Min Temperature 44 °F 44 °F - ()
Degree Days  
Heating Degree Days 10    
Growing Degree Days 5 (Base 50)    
Moisture  
Dew Point 51 °F    
Average Humidity 81    
Maximum Humidity 94    
Minimum Humidity 64    
Precipitation  
Precipitation 0.00 in - - ()
Sea Level Pressure  
Sea Level Pressure 30.38 in    
Wind  
Wind Speed 8 mph ()    
Max Wind Speed 18 mph    
Max Gust Speed -    
Visibility 6.2 miles    
Events      
T = Trace of Precipitation, MM = Missing Value Source: Averaged Metar Reports

Daily Weather History Graph

Daily Weather History Graph

Search for Another Location

Airport:

Trip Planner

Search our weather history database for the weather conditions in past years. The results will help you decide how hot, cold, wet, or windy it might be!

Date:

Astronomy

Mar. 22, 2013 Rise Set
Actual Time 7:34 AM NZDT 7:38 PM NZDT
Civil Twilight 7:05 AM NZDT 8:07 PM NZDT
Nautical Twilight 6:32 AM NZDT 8:40 PM NZDT
Astronomical Twilight 5:58 AM NZDT 9:14 PM NZDT
Moon 4:30 PM NZDT (3/22) 1:50 AM NZDT (3/22)
Length of Visible Light 13h 01m
Length of Day
12h 04m
Waxing Gibbous, 71% of the Moon is Illuminated
Mar 22
Waxing Gibbous
Mar 27
Full
Apr 3
Last Quarter
Apr 10
New
Apr 19
First Quarter

Hourly Weather History & Observations

Time (NZDT) Temp. Windchill Dew Point Humidity Pressure Visibility Wind Dir Wind Speed Gust Speed Precip Events Conditions
12:00 AM 53.6 °F - 48.2 °F 82% 30.45 in - ENE 8.1 mph - N/A   Clear
1:00 AM 50.0 °F - 46.4 °F 87% 30.42 in - ENE 6.9 mph - N/A   Clear
2:00 AM 50.0 °F - 46.4 °F 87% 30.42 in - NE 5.8 mph - N/A   Clear
3:00 AM 48.2 °F - 46.4 °F 93% 30.42 in - NE 5.8 mph - N/A   Clear
4:00 AM 48.2 °F - 46.4 °F 93% 30.42 in 6.2 mi NE 6.9 mph - N/A   Partly Cloudy
5:00 AM 48.2 °F - 44.6 °F 87% 30.42 in 6.2 mi NNE 5.8 mph - N/A   Partly Cloudy
6:00 AM 46.4 °F 45.2 °F 44.6 °F 93% 30.42 in - NNE 3.5 mph - N/A   Clear
7:00 AM 44.6 °F 42.2 °F 42.8 °F 93% 30.42 in 6.2 mi NE 4.6 mph - N/A   Partly Cloudy
8:00 AM 44.6 °F 42.2 °F 42.8 °F 93% 30.42 in 6.2 mi NE 4.6 mph - N/A   Partly Cloudy
9:00 AM 50.0 °F - 48.2 °F 94% 30.42 in 6.2 mi NE 4.6 mph - N/A   Partly Cloudy
10:00 AM 57.2 °F - 50.0 °F 77% 30.42 in 6.2 mi NNE 5.8 mph - N/A   Partly Cloudy
11:00 AM 62.6 °F - 53.6 °F 72% 30.42 in 6.2 mi ENE 13.8 mph - N/A   Scattered Clouds
12:00 PM 64.4 °F - 51.8 °F 64% 30.42 in 6.2 mi East 15.0 mph - N/A   Scattered Clouds
1:00 PM 66.2 °F - 53.6 °F 64% 30.39 in 6.2 mi ENE 15.0 mph - N/A   Scattered Clouds
2:00 PM 66.2 °F - 53.6 °F 64% 30.36 in 6.2 mi East 16.1 mph - N/A   Scattered Clouds
3:00 PM 66.2 °F - 53.6 °F 64% 30.36 in 6.2 mi East 17.3 mph - N/A   Partly Cloudy
4:00 PM 66.2 °F - 55.4 °F 68% 30.33 in 6.2 mi East 16.1 mph - N/A   Partly Cloudy
5:00 PM 66.2 °F - 55.4 °F 68% 30.33 in 6.2 mi East 18.4 mph - N/A   Partly Cloudy
6:00 PM 64.4 °F - 53.6 °F 68% 30.30 in 6.2 mi East 16.1 mph - N/A   Partly Cloudy
7:00 PM 62.6 °F - 55.4 °F 77% 30.30 in 6.2 mi ENE 17.3 mph - N/A   Partly Cloudy
8:00 PM 60.8 °F - 55.4 °F 82% 30.30 in - East 12.7 mph - N/A   Clear
9:00 PM 59.0 °F - 55.4 °F 88% 30.30 in - East 12.7 mph - N/A   Clear
10:00 PM 59.0 °F - 55.4 °F 88% 30.30 in - East 12.7 mph - N/A   Clear
11:00 PM 59.0 °F - 55.4 °F 88% 30.30 in - East 10.4 mph - N/A   Clear